Location: Poughquag
(41.6090°N, 73.6820°W)
Time: 00:10:45
(UTC-05:00)

Tiros 1 despin weight - Pass Details

Date: 16 December 2023
Orbit: 581 x 624 km, 48.2° (Epoch: 21 February)

Event Time Altitude Azimuth Distance (km) Brightness Sun altitude
Rises 17:47:28 0° 296° (WNW) 2,816 ? -14.7°
Reaches altitude 10° 17:49:49 10° 302° (WNW) 1,908 ? -15.1°
Maximum altitude 17:54:04 51° 19° (NNE) 739 ? -15.9°
Enters shadow 17:55:50 31° 78° (ENE) 1,035 ? -16.2°
